CW1187 Weather Reports


Display with metric or nautical units.
time (UTC)temp
F
wind
direction
speed
MPH
gust
MPH
rain 1hr
in
rain 24hr
in
rain mn
in
humidity
%
barometer
mb
20260503203045 60 193 3.0 12.0 0.00 0.00 0.00 41 1013.9
20260503202521 60 246 4.0 12.0 0.00 0.00 0.00 40 1014.2
20260503202022 60 243 3.0 11.0 0.00 0.00 0.00 41 1014.2
20260503201542 60 258 5.0 11.0 0.00 0.00 0.00 39 1014.4
20260503201020 60 185 4.0 13.0 0.00 0.00 0.00 40 1014.7
20260503200520 60 235 6.0 13.0 0.00 0.00 0.00 40 1015.0
20260503200047 60 235 4.0 18.0 0.00 0.00 0.00 41 1015.1
20260503195520 60 238 7.0 18.0 0.00 0.00 0.00 38 1015.0
20260503195020 60 193 3.0 14.0 0.00 0.00 0.00 41 1015.0
20260503194542 60 232 6.0 16.0 0.00 0.00 0.00 40 1015.0
20260503194020 60 217 6.0 16.0 0.00 0.00 0.00 38 1015.1
20260503193520 60 147 6.0 15.0 0.00 0.00 0.00 38 1015.1
20260503193043 60 212 5.0 15.0 0.00 0.00 0.00 38 1015.1
20260503192520 60 213 5.0 14.0 0.00 0.00 0.00 39 1015.2
20260503192021 61 202 6.0 14.0 0.00 0.00 0.00 37 1015.2
20260503191542 61 273 6.0 11.0 0.00 0.00 0.00 40 1015.0
20260503191021 60 250 4.0 10.0 0.00 0.00 0.00 39 1015.2
20260503190520 60 244 4.0 14.0 0.00 0.00 0.00 46 1015.3
20260503190042 59 234 4.0 14.0 0.00 0.00 0.00 39 1015.5
20260503185520 59 202 4.0 11.0 0.00 0.00 0.00 41 1015.8
20260503185023 59 228 3.0 11.0 0.00 0.00 0.00 40 1016.0
20260503184554 59 232 4.0 12.0 0.00 0.00 0.00 40 1016.0
20260503184019 59 235 5.0 17.0 0.00 0.00 0.00 38 1016.1
20260503183520 59 217 5.0 17.0 0.00 0.00 0.00 37 1016.2
20260503183051 60 174 5.0 16.0 0.00 0.00 0.00 44 1016.2
20260503182520 60 223 7.0 16.0 0.00 0.00 0.00 41 1016.2
20260503182021 61 192 5.0 12.0 0.00 0.00 0.00 38 1016.2
20260503181542 61 245 5.0 14.0 0.00 0.00 0.00 38 1016.3
20260503181021 61 221 6.0 14.0 0.00 0.00 0.00 40 1016.3
20260503180521 61 225 7.0 15.0 0.00 0.00 0.00 38 1016.4
20260503180043 61 211 6.0 18.0 0.00 0.00 0.00 38 1016.5
20260503175521 60 199 6.0 18.0 0.00 0.00 0.00 40 1016.6
20260503175025 60 202 6.0 13.0 0.00 0.00 0.00 39 1016.7
20260503174540 60 207 6.0 13.0 0.00 0.00 0.00 36 1016.7
20260503174021 60 237 6.0 21.0 0.00 0.00 0.00 39 1016.8
20260503173524 60 146 7.0 21.0 0.00 0.00 0.00 38 1016.9
20260503173037 60 175 6.0 19.0 0.00 0.00 0.00 39 1017.0
20260503172521 59 235 7.0 17.0 0.00 0.00 0.00 39 1017.1
20260503172021 59 228 4.0 16.0 0.00 0.00 0.00 43 1017.2
20260503171535 59 237 7.0 16.0 0.00 0.00 0.00 39 1017.2
20260503171020 60 154 6.0 16.0 0.00 0.00 0.00 37 1017.1
20260503170521 60 215 8.0 16.0 0.00 0.00 0.00 38 1017.1
20260503150520 56 209 5.0 10.0 0.00 0.00 0.00 57 1018.9
20260503131020 47 230 3.0 11.0 0.00 0.00 0.00 62 1018.9
20260503130520 46 217 3.0 11.0 0.00 0.00 0.00 62 1018.9
20260503110520 39 227 1.0 5.0 0.00 0.00 0.00 70 1018.4
20260503081604 39 0 1.0 4.0 0.00 0.00 0.00 70 1017.8
20260503081021 39 221 1.0 3.0 0.00 0.00 0.00 70 1017.8
20260503080520 39 221 0.0 3.0 0.00 0.00 0.00 69 1017.7
20260503072522 39 0 0.0 3.0 0.00 0.00 0.00 68 1017.7
20260503072021 39 229 0.0 3.0 0.00 0.00 0.00 68 1017.7
20260503071538 39 0 0.0 3.0 0.00 0.00 0.00 68 1017.7
20260503071020 39 254 0.0 3.0 0.00 0.00 0.00 68 1017.8
20260503070522 39 0 0.0 3.0 0.00 0.00 0.00 68 1017.8
20260503055020 40 281 1.0 3.0 0.00 0.00 0.00 66 1018.3
20260503054545 40 0 0.0 2.0 0.00 0.00 0.00 66 1018.3
20260503054022 40 0 0.0 2.0 0.00 0.00 0.00 66 1018.2
20260503053521 40 0 0.0 2.0 0.00 0.00 0.00 66 1018.3
20260503053034 40 342 0.0 1.0 0.00 0.00 0.00 66 1018.3
20260503052521 40 0 0.0 1.0 0.00 0.00 0.00 66 1018.4
20260503052021 40 0 0.0 1.0 0.00 0.00 0.00 66 1018.4
20260503051533 40 0 0.0 0.0 0.00 0.00 0.00 66 1018.4
20260503051020 40 0 0.0 0.0 0.00 0.00 0.00 66 1018.4
20260503050522 40 0 0.0 0.0 0.00 0.00 0.00 66 1018.4
20260503050041 40 0 0.0 0.0 0.00 0.00 0.00 67 1018.4
20260503045521 40 0 0.0 1.0 0.00 0.00 0.00 66 1018.4
20260503045020 40 0 0.0 1.0 0.00 0.00 0.00 67 1018.4
20260503044542 40 0 0.0 1.0 0.00 0.00 0.00 67 1018.4
20260503044020 40 0 0.0 1.0 0.00 0.00 0.00 67 1018.4
20260503043520 40 344 0.0 1.0 0.00 0.00 0.00 66 1018.3
20260503043042 40 0 0.0 0.0 0.00 0.00 0.00 66 1018.2
20260503042521 40 0 0.0 0.0 0.00 0.00 0.00 66 1018.3
20260503042021 40 0 0.0 1.0 0.00 0.00 0.00 66 1018.3
20260503041543 40 0 0.0 2.0 0.00 0.00 0.00 66 1018.3
20260503041020 40 0 0.0 2.0 0.00 0.00 0.00 65 1018.3
20260503040521 41 0 0.0 0.0 0.00 0.00 0.00 65 1018.4
20260503040047 41 0 0.0 0.0 0.00 0.00 0.00 65 1018.3
20260503035521 41 0 0.0 0.0 0.00 0.00 0.00 65 1018.3
20260503035022 41 0 0.0 0.0 0.00 0.00 0.00 66 1018.3
20260503034547 41 0 0.0 0.0 0.00 0.00 0.00 65 1018.4
20260503034021 41 0 0.0 0.0 0.00 0.00 0.00 64 1018.3
20260503033518 41 0 0.0 0.0 0.00 0.00 0.00 64 1018.3
20260503033058 41 0 0.0 0.0 0.00 0.00 0.00 64 1018.4
20260503032520 41 0 0.0 0.0 0.00 0.00 0.00 64 1018.3
20260503032025 41 0 0.0 0.0 0.00 0.00 0.00 65 1018.4
20260503031551 41 0 0.0 0.0 0.00 0.00 0.00 66 1018.3
20260503031023 41 0 0.0 0.0 0.00 0.00 0.00 66 1018.4
20260503030521 41 0 0.0 0.0 0.00 0.00 0.00 66 1018.5
20260503030034 41 0 0.0 0.0 0.00 0.00 0.00 66 1018.5
20260503025520 41 0 0.0 0.0 0.00 0.00 0.00 66 1018.5
20260503025020 41 0 0.0 0.0 0.00 0.00 0.00 66 1018.4
20260503024533 42 0 0.0 0.0 0.00 0.00 0.00 66 1018.3
20260503024021 42 0 0.0 0.0 0.00 0.00 0.00 65 1018.4
20260503023521 42 0 0.0 0.0 0.00 0.00 0.00 64 1018.3
20260503023039 43 0 0.0 0.0 0.00 0.00 0.00 63 1018.3
20260503022518 43 0 0.0 0.0 0.00 0.00 0.00 62 1018.3
20260503022020 43 0 0.0 0.0 0.00 0.00 0.00 62 1018.4
20260503021538 44 0 0.0 0.0 0.00 0.00 0.00 61 1018.3
20260503021019 44 0 0.0 0.0 0.00 0.00 0.00 61 1018.3
20260503020518 44 0 0.0 0.0 0.00 0.00 0.00 60 1018.3
20260503020041 44 0 0.0 0.0 0.00 0.00 0.00 60 1018.3
20260503015518 44 0 0.0 0.0 0.00 0.00 0.00 61 1018.2
20260503015020 44 0 0.0 0.0 0.00 0.00 0.00 61 1018.2
20260503014541 45 0 0.0 0.0 0.00 0.00 0.00 61 1018.1
20260503014020 45 0 0.0 0.0 0.00 0.00 0.00 60 1018.1
20260503013521 45 0 0.0 0.0 0.00 0.00 0.00 58 1018.0
20260503013041 45 0 0.0 0.0 0.00 0.00 0.00 57 1017.9
20260503012521 46 0 0.0 2.0 0.00 0.00 0.00 57 1017.9
20260503012020 46 0 0.0 2.0 0.00 0.00 0.00 57 1017.9
20260503011543 46 0 0.0 2.0 0.00 0.00 0.00 56 1017.9
20260503011020 46 0 0.0 2.0 0.00 0.00 0.00 57 1017.8
20260503010520 46 346 0.0 2.0 0.00 0.00 0.00 55 1017.8
20260503010038 46 0 0.0 3.0 0.00 0.00 0.00 53 1017.8
20260503005521 46 346 0.0 3.0 0.00 0.00 0.00 52 1017.7
20260503005019 47 346 1.0 3.0 0.00 0.00 0.00 52 1017.8
20260503004542 47 0 1.0 2.0 0.00 0.00 0.00 54 1017.7
20260503004020 47 0 0.0 3.0 0.00 0.00 0.00 53 1017.7
20260503003521 47 343 0.0 3.0 0.00 0.00 0.00 51 1017.7
20260503003034 48 343 0.0 3.0 0.00 0.00 0.00 50 1017.7
20260503002521 48 0 0.0 4.0 0.00 0.00 0.00 50 1017.7
20260503002025 48 343 1.0 5.0 0.00 0.00 0.00 48 1017.6
20260503001533 48 338 2.0 8.0 0.00 0.00 0.00 47 1017.4
20260503001021 48 352 2.0 8.0 0.00 0.00 0.00 47 1017.4
20260503000524 48 350 3.0 8.0 0.00 0.00 0.00 45 1017.4
20260503000041 49 333 3.0 9.0 0.00 0.00 0.00 45 1017.4
20260502235518 49 327 3.0 9.0 0.00 0.00 0.00 46 1017.4
20260502235021 49 321 3.0 11.0 0.00 0.00 0.00 46 1017.4
20260502234539 49 360 2.0 11.0 0.00 0.00 0.00 46 1017.4
20260502234022 49 5 3.0 10.0 0.00 0.00 0.00 46 1017.4
20260502233518 49 360 5.0 10.0 0.00 0.00 0.00 44 1017.5
20260502233051 49 344 4.0 10.0 0.00 0.00 0.00 44 1017.5
20260502232518 49 345 4.0 8.0 0.00 0.00 0.00 46 1017.5
20260502232020 49 344 3.0 8.0 0.00 0.00 0.00 46 1017.5
20260502231556 49 355 2.0 9.0 0.00 0.00 0.00 45 1017.4
20260502231021 49 336 4.0 12.0 0.00 0.00 0.00 50 1017.5
20260502230520 49 13 5.0 14.0 0.00 0.00 0.00 45 1017.5
20260502230035 49 328 7.0 14.0 0.00 0.00 0.00 45 1017.6
20260502225521 50 348 4.0 9.0 0.00 0.00 0.00 45 1017.5
20260502225021 50 329 2.0 9.0 0.00 0.00 0.00 46 1017.4
20260502224533 50 355 5.0 11.0 0.00 0.00 0.00 46 1017.5
20260502224021 51 325 4.0 11.0 0.00 0.00 0.00 44 1017.5
20260502223521 51 328 4.0 13.0 0.00 0.00 0.00 49 1017.4
20260502223047 51 315 4.0 13.0 0.00 0.00 0.00 51 1017.4
20260502222519 50 351 4.0 15.0 0.00 0.00 0.00 46 1017.4
20260502222019 50 310 4.0 15.0 0.00 0.00 0.00 45 1017.5
20260502221545 51 355 6.0 12.0 0.00 0.00 0.00 44 1017.5
20260502221019 51 345 3.0 9.0 0.00 0.00 0.00 43 1017.5
20260502220521 52 326 4.0 9.0 0.00 0.00 0.00 44 1017.5
20260502220042 52 314 2.0 11.0 0.00 0.00 0.00 44 1017.5
20260502215521 52 291 3.0 11.0 0.00 0.00 0.00 50 1017.5
20260502215022 52 360 6.0 11.0 0.00 0.00 0.00 44 1017.4
20260502214535 52 291 4.0 12.0 0.00 0.00 0.00 47 1017.3
20260502214021 51 360 6.0 15.0 0.00 0.00 0.00 44 1017.2
20260502213521 52 338 8.0 15.0 0.00 0.00 0.00 43 1017.2
20260502213048 52 300 4.0 15.0 0.00 0.00 0.00 45 1017.3
20260502212520 52 326 8.0 13.0 0.00 0.00 0.00 48 1017.3
20260502212021 52 336 6.0 13.0 0.00 0.00 0.00 44 1017.3
20260502211544 52 320 4.0 13.0 0.00 0.00 0.00 45 1017.2
20260502211025 52 343 7.0 13.0 0.00 0.00 0.00 43 1017.2
20260502210521 51 352 6.0 13.0 0.00 0.00 0.00 43 1017.1
20260502210033 51 323 5.0 13.0 0.00 0.00 0.00 44 1017.2
20260502205524 51 355 6.0 15.0 0.00 0.00 0.00 44 1017.2
20260502205021 51 355 5.0 15.0 0.00 0.00 0.00 45 1017.3
20260502204534 52 355 5.0 15.0 0.00 0.00 0.00 44 1017.3
20260502204020 53 9 7.0 15.0 0.00 0.00 0.00 44 1017.2
20260502203521 53 333 5.0 11.0 0.00 0.00 0.00 44 1017.2